Kezdőlap
METAR-TAF:

METAR-TAF

Repülőterek :

Fort Madison Municipal Airport

Fort Madison, Iowa, Amerikai Egyesült Államok

földrajzi szélesség: 40-40N, földrajzi hosszúság: 091-20W, magasság: 221 m

Jelenlegi meteorológiai megfigyelések

A jelentés 10 perccel ezelõtt készült, 11:55 UTC
Szélcsend
Hőmérséklet 6°C
Páratartalom 87%
Légköri nyomás 1018 hPa
Látótávolság: 16.1 km

METAR: KFSW 231155Z AUTO 00000KT 10SM 06/04 A3005 RMK AO2

Idő: 07:05 (12:05 UTC)


TAF: hiányzik

Meteorológiai megfigyelések és előrejelzések több, mint 4000 repülőtéren (METAR és TAF jelentéseket).

A térképen piros és sárga pontok jelzik az elérhető meteorológiai állomásokat.

Mozgassa az egeret a pont fölött, hogy megjelenjen az állomás neve.

Azután kattintson az időjárási megfigyelések és előrejelzések megtekintéséhez.

A térkép megváltoztatása: kattintson a fekete keresztel jelölt zöld gombra ráközelítéshez, a vonallal jelölt zöld gombra távolításhoz, vagy a zöld nyilakra a szomszédos térképek eléréséhez.


METAR-TAF: